| time (UTC) | temp F | wind direction | speed MPH | gust MPH | rain 1hr in | rain 24hr in | rain mn in | humidity % | barometer mb |
| 20260505124517 | 61 | 164 | 0.0 | 2.0 | 0.00 | 0.03 | 0.01 | 81 | 1014.0 |
| 20260505123022 | 60 | 120 | 0.0 | 2.0 | 0.00 | 0.03 | 0.01 | 82 | 1013.8 |
| 20260505121523 | 59 | 153 | 1.0 | 2.0 | 0.00 | 0.03 | 0.01 | 82 | 1013.5 |
| 20260505120029 | 58 | 111 | 1.0 | 2.0 | 0.00 | 0.03 | 0.01 | 84 | 1013.3 |
| 20260505114526 | 58 | 109 | 0.0 | 1.0 | 0.00 | 0.03 | 0.01 | 85 | 1012.9 |
| 20260505113023 | 57 | 108 | 0.0 | 2.0 | 0.01 | 0.03 | 0.01 | 86 | 1012.7 |
| 20260505111536 | 57 | 107 | 0.0 | 1.0 | 0.01 | 0.03 | 0.01 | 86 | 1012.7 |
| 20260505101519 | 57 | 80 | 0.0 | 2.0 | 0.00 | 0.02 | 0.00 | 84 | 1012.8 |
| 20260505100023 | 57 | 75 | 0.0 | 2.0 | 0.00 | 0.02 | 0.00 | 84 | 1012.7 |
| 20260505094528 | 58 | 74 | 0.0 | 2.0 | 0.00 | 0.02 | 0.00 | 84 | 1012.8 |
| 20260505091515 | 58 | 67 | 0.0 | 0.0 | 0.00 | 0.02 | 0.00 | 82 | 1013.2 |
| 20260505090019 | 58 | 67 | 0.0 | 0.0 | 0.00 | 0.02 | 0.00 | 82 | 1013.0 |
| 20260505084525 | 58 | 67 | 0.0 | 0.0 | 0.00 | 0.03 | 0.00 | 81 | 1013.2 |
| 20260505083027 | 59 | 67 | 0.0 | 0.0 | 0.00 | 0.03 | 0.00 | 81 | 1013.1 |
| 20260505081533 | 59 | 67 | 0.0 | 2.0 | 0.00 | 0.03 | 0.00 | 80 | 1013.1 |
| 20260505080029 | 59 | 129 | 0.0 | 2.0 | 0.00 | 0.03 | 0.00 | 79 | 1013.1 |
| 20260505074505 | 60 | 129 | 0.0 | 2.0 | 0.00 | 0.03 | 0.00 | 78 | 1013.5 |
| 20260505073012 | 61 | 129 | 0.0 | 2.0 | 0.00 | 0.03 | 0.00 | 75 | 1013.2 |
| 20260505071512 | 61 | 129 | 0.0 | 0.0 | 0.00 | 0.03 | 0.00 | 76 | 1013.2 |
| 20260505070017 | 61 | 129 | 0.0 | 1.0 | 0.00 | 0.03 | 0.00 | 76 | 1013.2 |
| 20260505064519 | 61 | 129 | 0.0 | 2.0 | 0.00 | 0.03 | 0.00 | 76 | 1013.3 |
| 20260505063006 | 62 | 142 | 0.0 | 2.0 | 0.00 | 0.03 | 0.00 | 75 | 1013.3 |
| 20260505061520 | 62 | 112 | 0.0 | 2.0 | 0.00 | 0.03 | 0.00 | 75 | 1013.5 |
| 20260505060014 | 62 | 122 | 0.0 | 2.0 | 0.00 | 0.03 | 0.00 | 75 | 1013.6 |
| 20260505054521 | 61 | 15 | 0.0 | 0.0 | 0.00 | 0.03 | 0.00 | 78 | 1013.5 |
| 20260505053023 | 61 | 15 | 0.0 | 0.0 | 0.00 | 0.03 | 0.00 | 78 | 1013.5 |
| 20260505051512 | 61 | 15 | 0.0 | 1.0 | 0.00 | 0.03 | 0.00 | 76 | 1013.5 |
| 20260505041530 | 62 | 15 | 0.0 | 0.0 | 0.01 | 0.03 | 0.03 | 77 | 1013.3 |
| 20260505040014 | 62 | 15 | 0.0 | 0.0 | 0.00 | 0.02 | 0.02 | 75 | 1013.3 |
| 20260505034515 | 63 | 15 | 0.0 | 2.0 | 0.00 | 0.02 | 0.02 | 74 | 1013.3 |
| 20260505033019 | 62 | 15 | 0.0 | 2.0 | 0.00 | 0.02 | 0.02 | 77 | 1013.5 |
| 20260505031522 | 62 | 89 | 0.0 | 0.0 | 0.00 | 0.02 | 0.02 | 76 | 1013.3 |
| 20260505030010 | 63 | 89 | 0.0 | 0.0 | 0.00 | 0.02 | 0.02 | 77 | 1013.2 |
| 20260505024534 | 63 | 89 | 0.0 | 2.0 | 0.00 | 0.02 | 0.02 | 76 | 1013.2 |
| 20260505023022 | 63 | 89 | 0.0 | 0.0 | 0.00 | 0.02 | 0.02 | 76 | 1013.0 |
| 20260505021523 | 63 | 89 | 0.0 | 0.0 | 0.00 | 0.02 | 0.02 | 75 | 1012.9 |
| 20260505020024 | 63 | 89 | 0.0 | 2.0 | 0.00 | 0.02 | 0.02 | 73 | 1012.9 |
| 20260505014514 | 64 | 89 | 0.0 | 0.0 | 0.00 | 0.02 | 0.02 | 73 | 1012.9 |
| 20260505013023 | 65 | 89 | 0.0 | 0.0 | 0.00 | 0.02 | 0.02 | 71 | 1012.7 |
| 20260505011522 | 66 | 89 | 0.0 | 0.0 | 0.00 | 0.02 | 0.02 | 69 | 1012.7 |
| 20260505010022 | 67 | 89 | 0.0 | 0.0 | 0.00 | 0.02 | 0.02 | 67 | 1012.4 |
| 20260505004526 | 68 | 89 | 0.0 | 0.0 | 0.00 | 0.02 | 0.02 | 65 | 1012.4 |
| 20260505003018 | 70 | 89 | 0.0 | 0.0 | 0.00 | 0.02 | 0.02 | 59 | 1012.3 |
| 20260505001520 | 72 | 89 | 0.0 | 0.0 | 0.00 | 0.02 | 0.02 | 1012.4 | |
| 20260505000032 | 74 | 89 | 0.0 | 1.0 | 0.00 | 0.02 | 0.02 | 49 | 1012.2 |
| 20260504234524 | 74 | 49 | 0.0 | 1.0 | 0.00 | 0.02 | 0.02 | 49 | 1012.4 |
| 20260504233021 | 75 | 46 | 0.0 | 2.0 | 0.00 | 0.02 | 0.02 | 48 | 1012.4 |
| 20260504231526 | 76 | 165 | 0.0 | 2.0 | 0.00 | 0.02 | 0.02 | 45 | 1012.5 |
| 20260504230007 | 76 | 19 | 0.0 | 3.0 | 0.00 | 0.02 | 0.02 | 45 | 1012.5 |
| 20260504224508 | 77 | 183 | 1.0 | 4.0 | 0.00 | 0.02 | 0.02 | 43 | 1012.5 |
| 20260504223012 | 77 | 78 | 0.0 | 4.0 | 0.00 | 0.02 | 0.02 | 44 | 1012.8 |
| 20260504221521 | 77 | 75 | 0.0 | 2.0 | 0.00 | 0.02 | 0.02 | 44 | 1012.9 |
| 20260504220012 | 77 | 77 | 0.0 | 4.0 | 0.00 | 0.02 | 0.02 | 43 | 1013.0 |
| 20260504214509 | 77 | 119 | 0.0 | 8.0 | 0.00 | 0.02 | 0.02 | 43 | 1013.2 |
| 20260504213012 | 78 | 281 | 1.0 | 2.0 | 0.00 | 0.02 | 0.02 | 40 | 1013.4 |
| 20260504211515 | 77 | 180 | 0.0 | 2.0 | 0.00 | 0.03 | 0.02 | 43 | 1013.5 |
| 20260504210020 | 77 | 327 | 0.0 | 2.0 | 0.00 | 0.03 | 0.02 | 42 | 1013.6 |
| 20260504204503 | 78 | 318 | 0.0 | 2.0 | 0.00 | 0.03 | 0.02 | 43 | 1013.9 |
| 20260504203019 | 78 | 193 | 2.0 | 11.0 | 0.00 | 0.03 | 0.02 | 44 | 1014.0 |
| 20260504201512 | 77 | 306 | 0.0 | 8.0 | 0.00 | 0.03 | 0.02 | 46 | 1014.2 |
| 20260504200024 | 78 | 210 | 1.0 | 6.0 | 0.00 | 0.03 | 0.02 | 42 | 1014.6 |
| 20260504194504 | 78 | 210 | 0.0 | 2.0 | 0.00 | 0.03 | 0.02 | 43 | 1014.7 |
| 20260504193015 | 78 | 249 | 1.0 | 7.0 | 0.00 | 0.03 | 0.02 | 44 | 1014.9 |
| 20260504191512 | 77 | 313 | 0.0 | 6.0 | 0.00 | 0.03 | 0.02 | 45 | 1014.9 |
| 20260504190016 | 78 | 170 | 2.0 | 8.0 | 0.00 | 0.03 | 0.02 | 39 | 1015.1 |
| 20260504184533 | 78 | 133 | 2.0 | 4.0 | 0.01 | 0.03 | 0.02 | 43 | 1015.0 |
| 20260504183007 | 78 | 152 | 1.0 | 5.0 | 0.01 | 0.03 | 0.02 | 44 | 1015.2 |
| 20260504181513 | 76 | 173 | 0.0 | 4.0 | 0.01 | 0.03 | 0.02 | 45 | 1015.3 |
| 20260504180020 | 77 | 325 | 0.0 | 9.0 | 0.01 | 0.03 | 0.02 | 48 | 1015.6 |
| 20260504174520 | 77 | 291 | 0.0 | 2.0 | 0.00 | 0.02 | 0.01 | 46 | 1015.7 |
| 20260504171508 | 75 | 308 | 0.0 | 3.0 | 0.00 | 0.02 | 0.01 | 52 | 1016.2 |